ELECTRON KICK STAGE R/B, 60085

Orbit data source: Space-Track

ELECTRON KICK STAGE R/B, 60085 is space debris in SSO originally from a launch on Thu, 20 Jun 2024 UTC via an Electron launch vehicle from the Rocket Lab Launch Complex (RLLC). Debris objects in space refer to the collection of defunct objects orbiting the Earth. Examples of debris include non-operational satellites, rocket bodies, and fragments generated from explosions, collisions, or faulty payload assembly.

Loading next visibility...
Identifier
60085, 2024-114G
Orbit
SSO
Country
Flag of USUS
Related business
Manufacturer
Rocket Lab
Mission
Operational spacecraft
Bus & Motor
KICK STAGE, CURIE
Mass
~50 kg wet, ~50 kg dry
Launch date (UTC)
2024-06-20 (1 year ago)
Launch vehicle
Electron
Launch site
Rocket Lab Launch Complex (RLLC)
Object type
Payload
Rocket body
Debris
Shape & HBR
Trunc Cone, 0.7 m
Radar Cross Section
0.760 m², Medium (>0.1 m² and < 1m²)

Expand to show TLE details & history
Last TLE update: 12 hours ago

TLE from 12 hours ago
0 ELECTRON KICK STAGE R/B
1 60085U 24114G   25260.89681694  .00006202  00000-0  37643-3 0  9993
2 60085  97.9803 298.5623 0069976 306.9825  52.5010 15.08857145 68250
Epoch: 2025-09-17T21:31Z
TLE epoch observation values (Epoch: 2025-09-17T21:31:24.983Z)
Latitude
-0.00002°
Longitude
-21.35798°
Altitude
513.489 km
Speed
7.623 km/s
True Right ascension
19h 54m 14s
True Declination
0° 00' 00"
Sunlit
Object was in full shadow at epoch
Visualization orbit readout
Latitude
Unknown
Longitude
Unknown
Altitude
Unknown
Speed
Unknown
Apparent Right ascension
Unknown
Apparent Declination
Unknown
Sunlit
N/A
Visualization observer readout
Local Sidereal Time
01:52:39
Azimuth
Unknown
Elevation
Unknown
Doppler factor
Unknown
Orbital elements
Apogee altitude
585.084 km
Perigee altitude
488.31 km
Semi-major axis
6,914.834 km
Eccentricity
0.007
Inclination
97.9803°
RAAN
298.5623°
Arg. of periapsis
306.9825°
True anomaly
53.14056°
Mean anomaly
52.501°
Eccentric anomaly
52.82044°
Mean motion
3.7746 °/min
Orbital period
95.37 mins
BSTAR
0.00037643
Loading maneuver chart data...
Computing Atmospheric mass density...
Loading historical data...
Loading historical data...
Loading historical data...
Loading historical data...
Loading historical data...
Loading historical data...
Loading historical data...

Documentation

Showing up to 5 results
|